912  
NZUS99 KSGF 250607  
HRRSGF  
 
HOURLY WEATHER  
NATIONAL WEATHER SERVICE SPRINGFIELD MO  
100 AM CDT MON MAY 25 2020  
   
.....SGF CWA...
 
 
 
CITY SKY/WX TMP DP RH WIND PRES REMARKS  
SPRINGFIELD FAIR 68 65 90 SE9 29.85S  
6HR MIN TEMP: 66; 6HR MAX TEMP: 68;  
 
JOPLIN FAIR 69 65 86 SE8 29.85R  
6HR MIN TEMP: 68; 6HR MAX TEMP: 79;  
 
WEST PLAINS FAIR 65 63 93 NE3 29.91F  
6HR MIN TEMP: 65; 6HR MAX TEMP: 80; 6HR PCP: 0.11;  
 
ROLLA FAIR 65 62 90 E9 29.90F  
6HR MIN TEMP: 63; 6HR MAX TEMP: 69; 6HR PCP: 0.21;  
 
OSAGE BEACH FAIR 63 62 97 E5 29.87F  
BRANSON FAIR 66 66 100 SE7 29.89R  
   
.....SURROUNDING SGF CWA...
 
 
 
CITY SKY/WX TMP DP RH WIND PRES REMARKS  
CHANUTE MOCLDY 73 67 81 S10 29.82R  
PARSONS MOCLDY 72 68 87 S3 29.84R  
COFFEYVILLE FAIR 71 67 87 S6 29.81R  
EMPORIA FAIR 73 70 90 S15G25 29.78S  
GROVE OK FAIR 68 63 83 CALM 29.83S  
ROGERS AR FAIR 67 61 81 E8 29.86R  
SILOAM SPRINGS FAIR 67 60 78 SE5 29.85R  
HARRISON AR FAIR 69 66 90 SE7 29.88R  
NEAR YELLVILLE FAIR 69 67 93 CALM 29.88R  
   
.....KANSAS AND MISSOURI...
 
 
 
CITY SKY/WX TMP DP RH WIND PRES REMARKS  
KANSAS CTY INT MOCLDY 69 65 86 SE12 29.82R  
DOWNTOWN KC FAIR 73 63 70 E5 29.80R  
COLUMBIA FAIR 66 63 90 SE9 29.87S  
SEDALIA FAIR 66 63 90 SE8 29.85R  
ST JOSEPH FAIR 63 62 97 CALM 29.81R  
ST LOUIS MOCLDY 67 63 87 NE6 29.88F  
SPIRIT OF STL FAIR 67 63 87 SW5 29.87F  
KIRKSVILLE FAIR 66 64 93 SE13 29.85R  
WICHITA CLOUDY 73 61 65 SW26G45 29.82R  
TOPEKA TSTM 69 63 81 NE5 29.78S  
OLATHE MOCLDY 71 67 87 S9 29.81S  
   
.....TENNESSEE...
 
 
 
CITY SKY/WX TMP DP RH WIND PRES REMARKS  
MEMPHIS FAIR 78 68 71 SE7 29.91F  
NASHVILLE FAIR 69 63 81 CALM 30.01F  
   
.....ARKANSAS....
 
 
 
CITY SKY/WX TMP DP RH WIND PRES REMARKS  
FAYETTEVILLE FAIR 69 61 75 E5 29.83R  
FT SMITH FAIR 69 62 78 E7 29.82R  
LITTLE ROCK MOCLDY 71 67 87 E7 29.88R  
   
.....OKLAHOMA....
 
 
 
CITY SKY/WX TMP DP RH WIND PRES REMARKS  
TULSA CLOUDY 71 62 73 CALM 29.81R  
PONCA CITY FAIR 71 59 65 SW10 29.81F  
MCALESTER LGT RAIN 68 60 75 S3 29.85R  
OKLAHOMA CITY CLOUDY 65 59 81 W8 29.86S  
   
.....IOWA.........
 
 
 
CITY SKY/WX TMP DP RH WIND PRES REMARKS  
DES MOINES CLOUDY 65 64 97 S8 29.79F  
QUAD CITIES FAIR 71 64 78 W7 29.86R  
   
.....ILLINOIS.....
 
 
 
CITY SKY/WX TMP DP RH WIND PRES REMARKS  
QUINCY FAIR 68 63 84 SW12 29.86S  
CHICAGO MOCLDY 74 65 73 S7 29.91R  
 
 
 
CLICK HERE TO GO TO PREVIOUS BULLETINS.

The Nexlab MO Page
The Nexlab KS Page Main Text Page